Temp_Advection
nan nan nan nan nan nan nan nan nan nan nan nan nan nan nan nan nan nan nan nan nan nan nan nan nan nan nan nan nan nan nan nan nan nan nan nan nan nan nan nan nan nan nan nan nan nan nan nan nan nan nan nan nan nan nan nan nan nan nan nan nan nan nan nan nan nan nan nan nan
nan 0 0 0 0 0 0 0 0 0 0 0 0 0 0 0 1 1 1 1 1 1 1 1 1 1 1 0 0 0 0 0 0 0 0 -0 -0 -0 -0 -0 0 0 0 0 0 0 0 0 0 0 0 0 0 -0 0 0 1 1 1 1 1 2 2 1 1 0 0 0 nan
nan 0 0 0 0 0 0 0 0 0 0 0 0 0 0 0 0 0 1 1 1 1 1 1 1 1 1 1 1 0 0 0 0 0 0 -0 -0 -0 -0 -0 -0 -0 -0 0 0 0 0 0 0 0 0 1 0 0 -0 0 1 1 1 1 1 1 1 1 1 1 1 1 nan
nan 0 0 0 0 0 0 0 0 0 0 0 0 0 0 0 0 0 0 0 1 1 1 1 1 1 1 1 1 0 0 0 0 0 0 -0 -0 -0 -0 -0 -0 -0 -0 -0 -0 -0 -0 0 -0 0 0 1 1 0 -0 -0 0 0 1 1 1 1 1 1 1 1 1 1 nan
nan 0 0 0 0 0 0 0 0 0 0 0 0 0 0 0 0 0 1 1 1 1 1 1 1 1 1 1 1 0 0 0 0 0 0 0 0 0 -0 -0 -0 -0 -0 -0 -0 -0 -0 -0 -0 -0 0 0 1 1 0 -0 -0 -0 0 1 1 1 1 1 1 1 1 1 nan
nan 0 0 0 0 0 0 0 0 0 0 0 0 0 0 0 0 0 1 1 1 1 1 1 1 1 1 1 1 0 0 0 0 0 0 0 0 0 -0 -0 -0 -0 -0 -0 -0 -0 -0 -0 -0 -0 -0 0 0 0 0 0 -0 -0 -0 -0 0 1 1 1 1 1 0 0 nan
nan 0 0 0 0 0 0 0 0 0 0 0 0 0 0 0 0 0 0 0 0 1 1 1 1 1 1 1 1 1 0 0 0 0 0 0 0 -0 -0 -0 -0 -1 -1 -0 -0 -0 -0 -0 -1 -1 -0 -0 0 0 0 0 -0 -0 -1 -1 -0 0 1 1 1 0 0 0 nan
nan 0 0 1 1 0 0 0 0 0 0 0 0 0 0 0 0 0 0 0 0 1 1 1 1 1 1 1 1 1 1 0 0 0 0 0 0 -0 -0 -0 -1 -1 -1 -1 -0 -0 -0 -0 -1 -1 -0 -0 -0 -0 0 0 -0 -0 -1 -1 -1 -0 0 0 0 0 0 0 nan
nan 0 0 0 0 0 0 0 0 0 0 0 0 0 0 0 0 0 0 1 1 1 1 1 1 1 1 1 1 1 1 1 0 0 0 0 0 0 -0 -0 -1 -1 -1 -1 -0 -0 -0 -0 -1 -1 -0 -0 -0 -0 -0 0 0 -0 -1 -1 -1 -1 -0 0 0 0 0 0 nan
nan 0 0 1 0 0 0 0 0 0 0 0 0 0 0 0 0 0 0 0 0 1 1 1 1 1 1 1 1 1 1 1 1 0 0 0 1 0 0 0 -0 -1 -1 -1 -1 -0 -0 -0 -0 -0 -0 -0 -0 -0 -0 0 0 0 -0 -1 -1 -1 -1 -0 0 0 0 -0 nan
nan 0 0 1 1 0 0 1 1 1 0 0 0 0 0 0 0 0 0 0 0 0 1 1 1 1 1 1 1 1 1 1 1 1 1 1 1 1 1 1 0 -0 -1 -1 -1 -0 -0 -0 -0 -0 -0 -0 -0 -0 -0 0 0 0 0 -0 -0 -1 -1 -0 -0 0 0 0 nan
nan 0 0 0 0 0 0 1 1 1 1 1 0 0 0 0 0 0 0 0 0 0 0 1 1 1 1 1 1 1 1 1 1 1 1 1 1 1 1 1 1 1 0 -0 -0 -0 -0 -0 -0 -0 -0 -0 -0 -0 -0 0 0 0 0 0 -0 -0 -1 -0 -0 -0 -0 -0 nan
nan 0 0 0 0 1 0 1 1 1 1 1 0 0 0 0 0 0 0 0 0 0 0 1 1 1 1 1 1 1 1 1 1 1 1 1 1 1 1 1 1 1 1 0 0 0 -0 -0 -0 -0 -1 -0 -0 -0 0 0 0 0 0 0 0 0 -0 -0 -0 -0 -0 -0 nan
nan 0 0 0 1 1 0 1 1 1 1 1 0 0 0 1 1 0 0 0 0 0 1 1 1 1 1 1 1 1 1 1 1 1 1 1 1 1 1 1 1 1 1 0 0 0 0 -0 -0 -0 -0 -1 -1 -0 -0 0 0 0 1 1 0 0 0 -0 -0 -0 -1 -0 nan
nan 0 0 0 0 0 0 0 1 1 1 1 1 0 0 1 1 1 0 0 0 0 0 1 1 1 1 1 1 1 1 1 1 1 1 1 1 1 1 0 0 0 0 0 -0 -0 0 0 -0 -0 -0 -1 -1 -0 -0 -0 0 0 1 1 1 1 1 0 -0 -0 -0 -0 nan
nan 0 0 0 0 0 0 0 1 1 1 1 1 1 0 0 1 1 0 0 0 0 0 0 0 0 1 1 1 1 1 1 1 1 1 1 1 1 1 1 0 0 0 0 -0 -0 -0 0 0 0 -0 -0 -1 -0 -0 -0 -0 0 0 1 1 1 1 1 0 -0 -0 0 nan
nan 0 0 0 0 1 0 0 1 1 1 1 1 1 1 0 0 0 0 0 0 0 0 0 0 0 0 1 1 1 1 1 1 1 1 1 1 0 1 1 0 0 0 0 -0 -0 -0 -0 0 0 -0 -0 -0 -0 -0 -0 -0 0 0 1 1 1 2 1 0 0 0 0 nan
nan 0 0 0 0 0 1 0 1 1 1 1 1 1 1 0 0 0 0 0 0 0 0 0 0 0 0 1 1 1 1 1 1 1 1 1 1 1 0 0 0 0 0 0 0 -0 -0 -0 -0 0 -0 -0 -0 -0 -0 -0 -0 0 0 1 1 2 2 1 0 0 0 0 nan
nan 0 0 0 0 0 0 0 1 1 1 1 0 0 0 0 0 0 0 0 0 0 -0 0 0 0 0 0 1 1 1 1 1 1 1 1 1 1 0 0 0 0 1 0 0 0 0 0 0 -0 -0 -0 -0 -0 0 0 0 0 0 1 1 2 1 1 0 1 0 0 nan
nan 0 0 0 0 1 0 0 0 1 1 1 0 0 0 0 0 0 0 0 0 0 0 0 0 0 0 0 0 1 1 1 1 1 1 1 1 1 1 0 0 1 1 1 1 1 1 0 0 0 -0 -0 -0 -0 -0 0 0 0 0 1 2 2 1 1 0 0 0 1 nan
nan 0 0 0 0 0 0 0 1 1 1 1 0 0 0 1 0 0 0 0 0 0 0 0 0 0 0 0 0 0 1 1 1 1 1 1 1 1 1 1 1 1 1 1 1 1 1 1 0 0 -0 -0 -0 -0 -0 0 0 0 1 1 2 1 1 0 0 0 0 1 nan
nan 0 0 0 1 0 1 0 0 1 1 1 0 0 0 0 1 0 0 0 0 0 0 0 0 0 0 0 0 0 0 1 1 1 1 1 1 1 1 1 1 0 0 0 0 0 0 0 0 -0 -0 -0 -0 -0 -0 -0 0 0 1 1 2 1 1 0 0 0 0 0 nan
nan 0 0 0 1 0 0 1 1 1 1 1 1 0 0 0 0 0 0 0 0 0 0 0 0 0 0 0 0 -0 -0 -0 0 0 1 1 1 1 1 1 1 1 0 0 1 0 0 -0 -0 -0 -0 -0 -0 -0 -0 -0 0 0 0 1 1 1 0 0 0 -0 0 0 nan
nan 0 0 0 1 0 0 0 1 1 1 1 1 0 0 0 0 0 0 0 0 0 0 0 0 -0 -0 -0 -0 -0 -0 -0 -0 -0 0 1 1 1 1 1 1 1 1 1 1 1 1 0 -0 -0 -0 0 0 -0 -0 -0 0 0 1 1 1 1 0 0 0 -0 -0 0 nan
nan 0 0 0 0 0 0 0 0 1 1 1 1 0 0 0 0 0 0 0 0 0 0 0 0 -0 -0 -0 -0 -0 -0 -0 -0 -0 -0 0 1 1 1 1 1 1 1 1 1 1 1 1 0 -0 0 0 0 0 -0 -0 -0 0 1 2 1 1 0 0 0 0 0 0 nan
nan 0 0 0 0 0 0 0 0 1 1 1 1 0 0 0 0 0 0 0 0 0 0 0 0 -0 -0 -0 -0 -0 -0 -0 0 0 0 0 0 1 1 1 1 1 1 1 1 1 1 0 0 0 0 0 0 0 0 0 -1 -1 1 2 2 1 0 0 0 0 0 0 nan
nan 0 0 0 0 0 0 0 0 0 1 1 1 1 0 0 0 0 0 0 0 0 0 0 -0 -0 -0 -0 -0 -0 -0 -0 0 0 0 0 0 0 1 1 1 1 0 0 0 1 1 0 0 0 0 0 0 1 1 0 0 -0 -0 1 2 2 1 0 0 0 0 0 nan
nan 0 0 0 0 0 0 0 0 0 0 0 1 0 1 1 1 1 0 0 0 0 0 -0 -0 -0 -0 -0 -0 -0 -0 -0 0 0 0 0 0 0 0 0 0 0 0 0 0 1 1 0 0 0 0 0 1 1 1 1 0 0 0 0 1 2 1 1 0 0 0 0 nan
nan 0 0 0 0 0 0 0 0 0 0 1 1 1 1 1 1 0 0 0 0 0 0 0 0 0 0 0 -0 -0 -0 -0 -0 0 0 0 0 0 0 0 0 0 0 0 0 0 0 0 0 0 0 -0 0 1 2 1 1 1 1 1 1 2 1 1 0 0 0 0 nan
nan 0 0 0 0 0 0 0 0 0 0 0 1 1 1 1 1 0 0 0 0 0 0 1 0 0 0 0 0 -0 -0 -0 -0 0 0 0 -0 0 0 0 0 0 0 0 0 0 -0 -0 -0 -0 -0 -0 -0 0 1 2 2 1 1 1 1 1 1 1 0 0 0 0 nan
nan 0 0 0 0 0 0 0 0 0 0 0 1 1 1 1 1 1 1 0 0 0 0 0 0 0 0 0 0 -0 -0 -0 -0 -0 0 0 -0 -0 0 0 0 0 0 0 0 0 -0 -0 -0 -0 -0 -0 0 0 0 0 1 1 1 1 1 1 1 1 0 0 0 0 nan
nan 0 0 0 0 0 0 0 0 0 0 1 1 1 1 1 1 1 1 0 0 0 0 0 0 0 0 0 0 0 -0 -0 -0 -0 0 0 -0 -0 -0 0 0 0 0 1 1 0 -0 -0 -0 -0 -0 0 -0 -0 -0 -0 -0 -0 0 1 1 1 1 1 0 0 0 0 nan
nan 0 0 0 0 0 0 0 0 0 0 1 1 1 0 0 0 1 1 0 0 0 0 1 1 1 1 1 0 0 0 -0 -0 -0 -0 -0 -0 -0 -0 -0 0 0 0 1 1 0 -0 -0 -0 -0 -0 0 -0 -0 0 0 0 0 -0 0 1 1 0 0 0 0 0 0 nan
nan 0 0 0 0 0 0 0 0 0 0 0 1 1 1 1 0 1 1 1 0 0 1 1 1 1 1 1 1 0 0 -0 -0 -0 -0 -0 -0 -0 -0 -0 0 0 0 1 1 0 -0 -0 -0 -0 -0 -0 -0 -0 0 0 0 0 -0 -0 0 0 0 0 1 0 0 0 nan
nan 0 0 0 0 0 0 0 0 0 0 0 1 1 1 1 1 1 1 1 1 1 1 1 1 1 1 1 1 1 0 -0 -0 -0 -0 -0 -0 -0 -0 -0 0 0 0 1 1 0 -0 -0 -0 -0 0 0 -0 -0 -0 -0 -1 -1 -1 -0 -0 -0 0 0 1 1 0 0 nan
nan 0 0 0 0 0 0 0 0 0 0 0 1 1 1 1 1 1 1 1 0 0 1 1 1 1 1 0 0 1 1 0 -0 -0 -0 -0 -0 -0 -0 -0 -0 -0 0 0 1 0 -0 -0 -0 -0 0 0 -0 -0 -0 -0 -0 -0 -1 -0 -0 -0 -0 0 0 0 0 0 nan
nan 0 0 0 0 0 0 0 0 0 0 0 1 1 1 1 1 1 1 1 0 0 0 1 1 1 1 0 0 1 1 1 0 -0 -0 -0 0 -0 -0 -1 -1 -0 -0 0 0 0 -0 -0 -0 0 0 -0 -0 -0 -0 -0 0 0 0 0 0 -0 -0 -0 0 0 0 0 nan
nan 0 0 0 0 0 0 0 0 0 0 0 1 1 0 0 1 1 1 1 1 0 0 1 1 1 1 1 0 0 1 1 1 0 -0 -0 0 0 -0 -1 -1 -0 -0 0 0 -0 -0 -0 -0 0 0 0 -0 -0 -0 -0 0 0 1 1 1 0 0 0 0 0 0 0 nan
nan 0 0 0 0 0 0 0 0 0 0 0 0 1 0 0 0 1 1 1 1 1 0 0 1 1 1 1 0 0 1 1 1 1 0 -0 0 0 0 -0 -0 -0 0 0 0 -0 -0 -0 -0 0 -0 0 -0 -0 -0 -0 -0 0 0 1 1 1 0 0 0 0 0 0 nan
nan 0 0 0 0 0 0 0 0 0 0 0 0 0 0 0 0 1 1 1 1 1 1 0 1 1 1 1 1 0 0 1 1 1 0 0 0 0 0 0 -0 -0 -0 0 0 -0 -0 -0 0 -0 -0 0 0 -0 -0 -0 -0 -0 0 1 1 1 1 1 0 0 0 0 nan
nan nan nan nan nan nan nan nan nan nan nan nan nan nan nan nan nan nan nan nan nan nan nan nan nan nan nan nan nan nan nan nan nan nan nan nan nan nan nan nan nan nan nan nan nan nan nan nan nan nan nan nan nan nan nan nan nan nan nan nan nan nan nan nan nan nan nan nan nan
Wind_Speed
17 18 19 19 20 20 21 21 21 21 21 21 21 21 21 21 21 21 21 21 21 21 22 22 23 23 23 23 24 25 25 26 26 27 27 27 25 22 20 19 20 20 21 22 23 24 24 25 25 26 26 27 27 27 26 25 25 24 25 25 26 25 24 23 23 23 24 24 25
17 18 18 19 20 20 21 21 21 21 21 21 20 20 20 20 21 21 21 21 21 21 22 23 23 23 23 24 24 25 25 26 27 28 28 27 24 21 19 19 20 20 21 22 23 24 24 25 25 26 26 26 27 27 27 26 26 26 26 27 27 27 25 24 23 23 23 23 24
17 18 18 19 19 20 20 21 21 21 20 20 20 20 20 20 20 20 21 21 21 22 22 23 23 23 24 24 24 25 25 26 27 28 28 26 23 21 19 19 20 20 21 22 23 24 24 25 25 26 26 26 26 26 27 27 27 27 27 28 28 28 27 25 24 23 23 24 24
17 18 18 19 19 20 20 21 21 20 20 20 20 19 19 19 20 20 21 21 21 21 22 23 23 24 24 24 25 25 26 26 27 28 27 25 23 21 20 20 20 21 21 22 23 23 24 24 25 25 25 25 25 26 26 26 26 27 27 28 28 28 27 26 25 24 24 25 25
17 18 18 19 19 20 20 20 20 20 20 20 19 19 19 19 20 20 20 21 21 21 22 23 23 24 24 24 25 25 26 27 27 27 26 25 23 21 20 20 20 21 21 22 22 23 23 24 24 24 25 25 25 25 25 26 26 26 26 27 27 27 26 26 25 25 25 26 26
17 17 18 18 19 19 20 20 20 20 20 20 19 19 19 19 19 20 20 20 21 22 22 23 23 24 24 24 25 25 26 27 27 26 26 24 23 22 21 21 21 21 21 21 22 22 23 23 24 24 24 24 24 24 25 25 25 26 26 26 26 25 25 25 25 25 25 26 26
17 17 18 18 18 19 19 20 20 20 20 20 19 19 19 19 19 19 20 20 21 22 22 23 23 24 24 25 25 26 26 27 27 26 26 25 24 23 22 22 22 22 21 21 21 22 22 23 23 24 24 24 24 24 24 24 25 25 26 25 25 25 24 24 24 24 24 25 26
17 17 17 18 18 19 19 20 20 20 20 19 19 19 19 19 19 19 20 20 21 21 22 23 23 24 24 25 25 26 26 27 27 26 26 25 24 24 23 23 23 23 22 22 21 21 22 22 23 23 24 24 24 24 24 24 25 25 26 26 25 24 24 24 24 24 24 24 25
16 17 17 18 18 19 19 20 20 20 20 19 19 19 19 19 19 19 20 20 21 21 22 23 23 24 24 25 25 26 26 27 27 27 26 26 25 25 24 24 24 24 24 23 22 22 22 22 23 23 23 24 24 24 25 25 25 26 26 26 26 25 24 24 24 24 24 24 25
16 17 17 18 18 19 19 19 19 19 19 19 19 19 19 19 19 19 20 20 21 21 22 22 23 24 24 25 25 25 26 26 27 27 27 27 26 25 25 24 24 25 25 25 24 23 23 23 23 23 23 23 24 24 25 25 26 26 27 27 27 26 25 25 24 24 24 24 25
16 17 17 18 18 19 19 19 19 19 19 19 19 19 19 19 19 19 20 20 21 21 22 22 23 23 24 24 25 25 26 26 27 27 27 27 27 26 26 25 25 25 26 26 25 24 24 24 23 23 23 23 24 25 25 26 26 27 27 27 27 27 27 26 25 25 24 25 25
17 17 17 18 18 19 19 19 19 19 19 19 19 19 19 19 19 19 20 20 21 21 22 22 22 23 24 24 25 25 25 26 26 27 27 27 27 27 27 26 26 26 26 26 25 25 25 25 24 24 24 24 24 25 25 26 27 28 28 28 28 28 28 27 26 26 25 25 25
17 17 17 17 18 18 19 19 19 19 19 19 19 19 19 19 19 19 20 20 21 21 22 22 22 23 23 24 24 25 25 26 26 26 27 27 28 28 28 28 27 26 26 26 26 26 26 25 25 25 25 25 25 25 25 26 27 28 29 30 30 29 29 28 27 26 26 25 24
16 17 17 17 18 18 19 19 19 19 19 19 19 19 19 19 19 19 19 20 20 21 22 22 22 23 23 24 24 24 25 25 26 26 27 27 28 28 29 28 28 27 26 26 26 26 26 26 26 25 25 25 26 26 26 26 27 28 29 30 31 31 30 29 27 27 26 25 24
16 17 17 17 18 18 18 19 19 19 19 19 19 19 19 19 19 19 19 20 20 21 22 22 23 23 23 23 24 24 24 25 25 26 27 27 28 28 28 28 27 27 26 26 27 27 27 27 26 26 26 26 26 26 26 26 26 27 29 31 32 32 31 29 27 26 26 25 24
16 16 17 17 17 18 18 18 19 19 19 19 19 19 19 19 19 19 19 19 20 21 21 22 23 23 23 23 23 24 24 25 25 26 26 27 27 27 27 27 27 27 27 27 27 27 27 27 27 26 26 26 26 26 26 26 27 27 29 32 33 33 32 29 26 25 26 25 24
16 16 16 17 17 17 18 18 18 18 18 18 18 18 19 19 19 19 19 19 20 21 21 22 23 23 24 24 24 24 24 24 25 25 26 26 26 27 26 27 27 27 27 27 28 28 28 27 26 26 25 25 25 25 26 26 27 28 30 32 34 34 31 27 25 26 26 25 23
16 16 16 16 17 17 17 18 18 18 18 18 18 18 18 18 18 18 18 19 20 21 21 22 22 23 23 23 24 23 23 24 24 24 24 25 25 25 25 26 26 27 27 28 28 28 27 27 26 25 25 24 24 24 25 26 27 29 31 33 35 33 30 26 26 26 26 24 23
16 16 16 16 16 17 17 17 17 18 18 18 18 18 18 18 18 18 18 18 19 20 21 22 22 22 22 23 23 23 23 23 23 23 23 23 24 24 25 25 26 27 27 27 27 27 26 26 25 24 23 23 23 24 25 26 28 30 33 35 35 32 28 25 25 26 25 24 24
16 15 16 16 16 16 16 17 17 17 17 18 18 18 18 18 18 18 18 18 19 20 20 21 21 22 22 22 22 22 22 22 23 23 23 23 24 24 25 25 26 26 26 26 26 26 25 24 24 23 22 23 24 25 26 28 30 33 35 36 34 30 26 25 25 24 24 25 26
15 15 15 15 15 16 16 16 17 17 17 17 18 18 18 18 17 17 18 18 19 19 20 20 21 21 21 22 22 22 22 22 23 23 24 24 24 24 25 25 26 26 25 25 24 24 24 23 22 22 22 23 25 27 28 31 33 35 36 35 32 28 24 24 24 24 25 27 27
15 15 15 15 15 15 16 16 16 17 17 17 17 18 18 17 17 17 17 18 18 19 19 20 20 21 21 21 22 22 22 23 23 24 25 25 25 25 25 25 25 25 24 24 23 23 22 22 22 23 24 25 27 29 31 33 35 36 36 34 31 26 23 23 23 24 26 27 27
15 15 15 15 15 15 15 16 16 16 17 17 17 17 17 17 17 17 17 18 18 18 19 20 20 20 21 21 22 22 23 23 24 24 25 25 25 25 25 25 25 24 24 23 22 22 22 23 23 24 26 28 29 31 33 34 35 36 36 34 29 24 21 22 23 24 25 26 27
15 14 14 14 14 15 15 15 16 16 17 17 17 17 17 17 17 17 17 18 18 18 19 19 20 20 20 21 21 22 22 23 24 25 25 25 25 25 25 24 24 23 22 22 21 22 22 23 24 26 27 29 30 32 33 34 36 37 36 32 25 21 21 22 22 22 24 25 25
14 14 14 14 14 14 15 15 16 16 16 17 17 17 17 17 17 17 18 18 18 18 19 19 19 20 20 21 21 21 22 23 23 24 25 25 25 25 24 24 23 22 22 21 21 22 22 23 24 25 27 28 29 30 32 33 37 38 35 28 22 21 22 22 22 22 23 24 24
14 14 14 14 14 14 15 15 16 16 16 16 17 17 17 17 17 17 18 18 18 19 19 19 19 20 20 21 21 21 21 21 22 23 24 25 25 24 24 23 23 22 22 22 22 22 22 23 24 25 26 27 28 29 30 32 35 36 34 28 24 22 23 22 21 22 22 23 23
14 14 14 14 14 14 14 15 15 16 16 16 16 16 16 17 17 17 18 18 18 19 19 19 19 20 20 21 21 21 21 21 21 22 23 23 24 23 23 22 22 22 22 22 23 23 23 24 24 25 26 27 27 28 28 28 31 33 33 31 29 26 24 22 21 21 22 22 23
14 14 14 13 13 14 14 15 15 16 16 16 16 16 16 17 17 17 18 18 18 19 19 19 19 19 20 20 20 20 20 20 20 21 22 22 22 22 21 21 21 21 22 23 23 23 23 24 26 27 28 28 28 27 26 26 27 29 31 32 31 29 25 22 20 20 21 22 22
14 14 13 13 13 13 14 14 15 15 16 16 16 16 16 16 17 17 18 18 18 18 18 19 19 19 20 20 20 20 20 19 19 20 20 21 20 20 20 20 20 21 22 22 23 23 24 26 27 29 29 30 30 29 28 27 26 28 29 31 31 28 24 21 19 19 20 21 22
14 13 13 13 13 13 13 14 14 15 15 15 15 16 16 16 17 17 18 18 18 18 18 19 19 19 19 20 20 20 20 19 19 19 19 20 19 19 18 19 19 20 22 23 24 24 25 26 27 28 29 31 32 33 32 30 29 30 31 31 30 26 23 19 18 18 19 21 23
14 13 13 13 12 12 13 13 14 14 15 15 15 15 16 16 17 17 17 17 18 18 18 18 18 19 19 20 20 20 20 19 19 18 18 19 18 18 18 18 19 20 22 24 25 25 25 26 26 27 29 32 35 36 35 32 31 32 33 31 28 24 20 18 17 17 18 20 22
13 13 13 12 12 12 13 13 14 14 14 14 15 15 15 16 16 16 17 17 17 18 18 18 18 19 19 20 20 21 20 20 18 18 17 18 18 17 17 18 19 21 23 25 26 26 26 26 26 27 29 33 36 37 36 33 32 33 33 30 26 21 19 17 16 16 18 20 22
13 13 12 12 12 12 12 13 13 14 14 14 14 14 15 15 16 16 16 16 17 17 18 18 19 19 20 20 21 21 21 20 18 17 17 17 17 17 18 18 19 21 23 26 26 26 26 26 27 28 30 32 34 35 34 32 32 32 31 27 23 20 18 16 15 16 17 19 22
13 13 12 12 12 12 12 12 13 13 13 13 13 14 14 15 15 16 16 16 16 17 18 18 19 19 20 20 21 22 22 20 19 17 16 16 16 17 18 19 20 21 23 26 27 27 27 28 29 30 30 31 32 32 31 31 31 29 27 23 20 19 17 16 16 16 18 20 22
13 13 12 12 11 11 12 12 12 13 13 13 13 13 14 14 15 15 15 16 16 17 18 18 19 19 20 20 21 22 22 21 19 17 16 16 16 17 18 19 20 21 23 26 27 28 28 29 31 31 29 29 30 30 30 30 29 27 23 21 20 19 18 17 17 18 19 21 23
13 13 12 12 11 11 11 12 12 12 12 12 13 13 13 14 14 15 15 16 16 17 18 18 19 20 21 21 22 23 22 22 20 18 16 15 16 17 19 19 20 22 24 27 28 29 29 31 31 30 27 27 29 29 29 29 28 25 23 22 22 21 21 20 19 20 20 22 23
13 13 12 11 11 11 11 11 11 12 12 12 12 13 13 14 14 14 15 15 16 17 18 19 20 21 22 22 23 23 23 21 20 18 16 15 16 18 19 20 21 23 25 27 29 29 30 31 30 28 25 26 29 29 29 28 27 26 25 24 24 23 22 21 21 21 22 23 23
13 13 12 11 11 11 11 11 11 11 11 11 12 12 13 13 14 14 14 15 16 18 19 20 20 21 22 23 24 23 22 20 19 17 16 15 16 17 19 21 22 23 25 27 28 29 29 30 28 25 24 26 29 30 29 28 27 27 27 26 25 23 22 21 21 22 23 23 22
13 13 12 11 11 10 10 10 10 11 11 11 12 12 12 13 13 14 14 15 16 17 19 20 21 22 22 23 23 23 21 19 17 15 15 14 15 17 19 20 21 22 24 26 27 28 29 29 25 22 23 27 29 30 29 29 28 28 28 27 25 23 21 20 21 22 23 23 23
14 13 12 11 11 10 10 10 10 10 10 11 11 12 12 13 13 14 14 15 16 17 19 20 21 22 22 23 23 22 20 17 14 13 13 13 14 16 17 18 19 21 23 25 26 27 28 27 22 21 24 26 28 29 29 29 29 29 29 28 26 23 21 20 20 22 24 25 24
14 13 12 12 11 10 10 9 9 9 10 10 11 11 12 12 13 14 14 15 16 17 19 20 21 22 22 22 21 21 19 16 13 12 11 12 13 14 15 16 17 19 21 23 24 26 26 24 21 21 24 25 27 27 28 28 29 30 31 31 28 25 22 21 21 23 25 26 25
Wind_Direction
315 316 319 321 323 325 326 327 327 327 328 328 329 330 330 329 329 329 329 328 326 325 324 322 321 319 318 316 314 312 312 311 311 311 312 314 315 316 317 319 320 319 318 317 317 319 322 325 328 330 331 332 333 335 336 337 337 335 333 331 330 331 331 330 330 329 327 326 326
314 316 318 321 323 325 326 326 326 327 327 328 329 329 329 328 328 328 328 328 326 325 323 321 319 317 315 314 312 312 311 311 311 312 313 314 315 315 316 317 318 319 318 318 319 321 323 326 327 328 329 330 331 332 334 336 337 336 334 333 334 335 335 335 333 331 330 329 330
313 315 318 321 323 325 325 326 326 326 326 327 327 328 328 328 328 328 328 328 327 325 322 319 318 316 314 313 312 311 311 311 312 312 314 315 315 315 314 315 317 318 318 319 321 323 324 326 326 327 328 328 328 328 330 333 335 335 334 334 334 336 337 336 336 334 333 333 334
312 315 318 321 323 324 325 325 325 325 325 325 326 327 327 328 328 328 328 328 327 325 322 319 317 316 314 313 312 312 311 312 312 313 315 315 315 314 313 313 315 316 318 319 321 323 325 325 326 326 327 327 326 325 326 329 332 333 333 333 334 335 336 336 336 336 336 336 337
311 314 317 320 322 323 324 323 323 323 324 324 326 327 327 328 328 329 329 328 326 324 322 320 317 315 314 313 312 312 312 313 314 315 316 316 315 313 312 312 313 315 317 319 322 323 324 325 325 326 326 326 324 322 323 325 327 329 330 331 333 334 335 335 335 336 336 336 338
310 313 317 320 321 322 322 321 321 322 322 323 325 327 328 328 329 329 328 327 326 325 323 320 317 316 314 313 312 313 314 315 316 317 317 316 315 313 312 311 311 314 316 319 322 323 324 325 325 325 325 325 322 321 320 321 323 324 326 327 329 331 332 333 334 334 335 336 337
309 313 316 319 320 320 320 320 320 320 322 323 326 328 328 329 329 328 328 327 326 325 323 321 319 317 315 314 314 314 314 315 317 317 318 317 315 314 312 311 311 313 315 319 321 323 323 324 324 325 325 324 322 321 320 319 319 319 320 322 325 327 329 330 331 332 333 334 335
309 312 315 317 318 319 319 319 319 320 322 324 326 328 328 328 328 328 327 326 326 325 324 322 320 318 317 315 314 314 315 316 317 318 318 318 316 314 313 311 311 312 313 316 318 320 322 322 323 324 324 324 323 322 320 318 316 315 316 317 319 322 324 327 328 329 331 332 333
308 311 314 316 317 318 318 319 320 321 323 325 326 327 327 327 327 327 327 326 325 325 324 323 321 320 318 316 316 315 316 317 318 318 319 318 317 315 313 312 311 310 310 312 314 316 318 319 320 322 323 324 323 322 321 319 316 314 313 313 314 316 319 322 324 327 328 330 331
307 310 313 315 317 318 318 319 320 321 323 324 325 326 326 326 327 327 326 326 326 325 325 324 322 321 319 318 318 317 318 318 319 319 318 318 317 315 314 312 310 308 308 309 310 312 314 316 317 318 320 321 321 322 321 320 318 315 312 311 311 312 314 317 321 324 326 329 330
306 310 312 315 317 318 318 319 320 321 323 324 325 325 326 326 326 326 326 326 325 325 325 325 323 322 321 320 320 320 320 319 319 318 318 318 317 315 313 311 309 307 306 307 309 310 312 313 314 315 316 317 318 320 321 321 320 317 314 311 309 308 309 313 317 321 325 328 330
306 309 312 314 316 317 318 319 320 321 323 324 325 325 325 326 326 326 326 325 325 325 325 325 324 323 322 322 322 322 321 320 319 318 317 317 316 315 313 312 310 308 307 308 309 310 311 312 312 313 313 314 315 317 318 320 320 319 317 314 310 307 306 309 314 318 322 326 328
305 308 311 314 316 317 318 319 320 321 323 324 325 325 325 326 326 325 325 325 325 325 325 326 326 325 324 324 324 323 321 320 319 318 317 316 315 314 313 313 312 311 310 310 311 312 312 313 312 312 312 312 313 314 316 317 319 319 318 316 312 308 305 306 310 315 319 324 327
304 307 311 313 315 316 317 318 320 321 323 324 325 325 325 325 325 324 325 325 325 326 326 326 327 327 327 326 325 324 322 321 319 318 317 316 315 315 314 315 315 315 314 314 314 314 314 314 314 313 313 312 312 313 313 315 316 318 319 318 314 310 306 304 307 312 318 323 326
303 307 310 312 314 316 317 318 319 320 322 323 324 324 324 324 323 323 324 325 326 326 327 328 329 329 328 328 326 325 323 322 320 318 317 316 316 316 316 317 317 317 317 317 316 316 315 315 315 314 313 313 312 312 312 313 314 317 318 319 316 311 306 303 305 311 319 324 328
302 306 309 312 314 315 316 317 318 320 321 322 323 322 322 322 323 324 325 327 328 328 329 330 330 330 330 330 328 327 325 324 322 320 319 318 318 318 318 318 319 319 319 318 317 316 316 315 315 315 314 313 313 313 313 313 314 316 319 320 317 312 305 301 304 313 322 327 331
301 305 308 311 313 314 315 316 318 319 320 321 321 321 322 322 323 325 327 329 330 331 331 332 332 332 332 331 331 330 328 326 325 323 322 321 320 320 320 320 320 320 319 318 317 316 316 315 315 314 314 313 313 313 314 314 316 318 320 320 316 309 302 300 307 317 324 328 330
300 304 308 311 313 314 315 316 317 318 319 320 320 321 321 322 324 326 329 330 331 332 332 333 334 333 333 333 333 332 331 329 328 326 325 324 323 323 323 323 322 321 320 318 317 316 315 315 315 314 314 313 314 314 315 317 318 320 320 318 312 304 300 303 313 322 326 327 328
299 304 307 310 312 313 314 315 316 317 318 319 320 320 321 322 324 327 330 331 332 333 333 334 334 334 335 335 335 335 334 333 332 331 330 329 328 328 327 326 324 322 320 318 317 316 315 314 314 314 314 315 316 317 318 319 320 320 318 314 306 300 301 311 322 329 331 330 328
299 303 306 309 311 312 313 314 316 317 317 318 319 319 321 323 325 328 330 332 333 333 334 334 334 335 336 336 337 338 338 338 337 337 336 336 335 333 331 329 326 324 322 320 319 317 316 315 315 315 317 319 320 321 320 319 318 317 315 309 303 300 307 321 332 337 339 336 331
298 301 305 308 310 311 313 314 315 316 317 318 318 319 321 323 325 328 331 332 333 333 334 334 335 336 336 337 339 341 342 342 342 342 341 341 339 337 335 331 329 326 325 323 322 320 318 317 317 319 321 324 324 322 320 317 316 315 312 307 302 303 314 330 340 345 344 340 333
296 300 304 307 309 310 312 313 314 315 316 317 318 319 320 323 325 328 330 331 332 333 333 334 334 335 337 339 341 342 344 345 345 345 344 343 341 339 337 334 331 330 329 328 326 324 321 320 321 323 326 326 324 321 317 315 315 315 312 307 302 306 319 336 345 348 346 341 334
294 299 302 306 308 309 311 312 313 314 315 316 317 318 320 323 326 329 330 331 331 331 332 332 333 335 337 339 341 343 344 346 346 347 345 344 342 340 338 337 335 333 333 332 330 326 324 323 324 325 325 323 319 316 314 314 314 313 310 304 301 308 325 339 345 347 345 341 335
294 297 301 304 306 308 309 311 313 314 314 315 317 319 322 325 327 329 330 330 330 330 330 331 333 335 338 340 342 344 345 346 346 346 345 344 343 341 340 339 338 337 337 335 332 328 325 323 322 321 319 317 315 314 314 315 315 312 307 301 301 313 329 339 343 343 341 339 334
292 296 300 303 305 306 309 310 312 313 314 315 317 320 323 326 328 329 329 329 328 329 330 332 334 337 339 340 342 344 345 345 345 344 344 344 344 343 342 342 342 341 341 338 334 330 326 321 318 316 315 314 314 315 317 318 317 313 307 302 305 318 330 337 339 338 337 336 332
291 295 298 301 303 305 308 310 312 313 314 316 318 322 325 327 328 328 328 327 327 329 330 333 335 338 339 341 342 343 344 344 344 343 343 343 344 345 345 345 345 345 344 341 338 333 327 322 318 316 315 315 316 318 320 322 321 317 312 309 311 320 328 334 335 335 335 333 330
289 293 296 299 302 304 307 310 311 313 314 316 319 323 326 328 328 327 326 326 327 329 331 334 336 339 340 340 341 341 342 343 343 343 342 342 343 345 347 349 349 349 347 344 341 335 328 324 320 318 318 317 316 317 319 322 322 321 318 315 315 319 325 331 333 333 332 330 327
287 291 294 297 300 303 307 309 311 312 314 317 320 323 326 327 327 326 325 326 327 329 332 335 337 338 339 339 339 340 341 342 342 342 341 340 342 345 349 351 352 351 349 347 343 337 330 325 322 321 319 317 315 313 313 316 320 322 322 319 316 317 322 329 332 332 330 327 324
285 289 292 295 299 303 305 307 309 311 314 317 320 323 325 326 325 325 325 326 328 331 334 336 337 338 338 338 338 339 339 340 341 340 339 338 341 345 350 353 353 353 351 349 345 339 332 327 325 323 322 319 314 311 308 308 314 319 322 320 317 316 320 327 330 330 328 326 324
283 287 291 294 298 301 304 306 308 310 313 317 320 322 324 324 324 324 325 327 330 333 335 336 336 337 338 338 338 338 338 339 339 338 336 336 338 344 349 353 353 353 352 350 347 340 333 329 328 327 325 321 317 312 308 307 310 315 318 317 315 316 320 325 328 328 327 326 324
281 285 289 292 296 299 301 304 306 309 312 316 319 321 323 324 324 325 326 328 331 333 334 335 335 336 337 337 337 337 337 337 337 336 334 333 335 340 346 350 352 352 351 349 346 340 333 331 329 328 326 326 324 322 320 317 317 317 316 314 313 316 321 325 326 327 327 326 324
279 283 286 290 293 296 299 302 304 308 311 315 318 321 323 324 325 326 327 329 331 333 333 335 335 336 336 336 336 336 336 336 335 333 331 330 331 335 340 345 348 349 349 347 343 337 332 329 328 326 327 331 334 336 336 334 330 324 319 313 313 318 324 326 326 327 327 326 325
277 280 284 287 290 294 297 300 303 306 310 314 319 322 324 324 325 326 328 329 331 332 334 335 335 335 335 335 336 336 336 335 333 330 328 327 327 330 335 340 344 346 347 345 339 333 329 327 325 325 328 335 340 342 341 339 336 330 323 316 318 324 328 327 327 328 329 327 327
274 277 281 284 288 291 295 298 302 306 310 315 320 323 324 324 325 326 328 330 331 332 334 335 334 334 334 335 335 335 335 334 332 329 326 325 325 328 333 337 342 345 346 344 337 331 328 326 323 324 329 337 342 343 342 341 341 337 330 326 330 334 334 331 331 332 331 329 328
271 274 278 281 285 289 293 296 300 305 310 316 321 323 324 323 324 326 329 331 331 332 333 333 334 334 334 335 335 335 335 335 333 330 327 325 326 329 333 338 342 346 347 345 339 333 329 326 324 326 331 340 345 345 345 347 349 348 345 344 346 344 341 337 335 334 332 329 328
269 272 275 279 283 287 291 295 300 305 311 317 321 322 322 323 324 327 330 331 331 332 332 333 333 334 334 334 335 335 336 335 334 331 328 327 329 332 335 339 344 347 348 347 343 336 330 327 326 329 336 345 348 348 349 351 354 355 354 353 352 349 345 341 338 335 331 328 328
268 271 274 277 280 284 288 293 299 305 311 317 319 320 321 323 325 328 330 330 330 331 333 334 334 334 334 334 335 336 336 336 334 332 330 330 332 335 337 341 345 347 348 346 342 337 331 328 329 333 342 349 351 350 349 350 351 351 350 348 347 346 344 341 338 334 330 328 328
266 269 271 275 278 282 286 292 298 304 310 315 317 319 321 323 326 329 330 331 330 331 333 334 333 334 334 334 334 335 336 336 334 332 330 332 335 337 339 341 344 346 347 345 340 335 331 330 333 339 347 351 351 351 350 350 349 347 345 343 342 340 339 339 336 334 331 331 331
265 267 270 273 275 280 284 289 296 303 308 312 315 318 320 323 326 329 331 332 332 332 332 333 333 333 333 333 333 335 336 336 334 332 331 332 336 339 340 340 342 344 345 343 338 334 332 332 337 345 351 351 351 351 351 351 350 347 344 340 337 334 333 334 335 336 336 336 335
263 266 268 270 273 276 281 286 293 300 306 311 314 317 320 323 326 329 332 332 332 332 332 332 332 332 333 333 333 334 336 336 335 333 332 333 336 339 341 341 342 344 344 343 339 335 333 335 342 351 354 352 350 350 352 352 351 348 343 338 332 328 328 331 335 338 339 339 339
262 264 266 268 270 273 277 284 291 299 305 309 313 315 319 322 326 329 332 332 332 332 332 331 331 332 333 334 334 334 335 336 336 334 333 333 336 340 342 343 343 343 342 341 339 336 336 339 347 353 354 352 350 351 352 352 352 349 344 339 334 330 329 332 336 339 340 340 340
Height
1537 1536 1535 1534 1533 1532 1531 1530 1529 1528 1527 1526 1525 1523 1522 1521 1520 1518 1518 1516 1515 1514 1513 1512 1512 1511 1509 1509 1508 1507 1505 1504 1503 1502 1500 1499 1498 1497 1496 1495 1494 1493 1492 1491 1489 1488 1487 1485 1484 1482 1481 1479 1478 1477 1475 1474 1472 1471 1469 1467 1465 1463 1462 1460 1458 1457 1456 1454 1453
1536 1535 1534 1533 1532 1531 1530 1529 1528 1527 1526 1525 1524 1523 1521 1520 1519 1518 1516 1515 1514 1513 1512 1511 1510 1509 1508 1508 1507 1506 1504 1503 1502 1500 1499 1498 1497 1496 1495 1494 1493 1492 1491 1489 1488 1487 1485 1484 1483 1481 1479 1478 1477 1475 1474 1473 1471 1469 1468 1466 1464 1463 1461 1459 1457 1456 1455 1453 1452
1535 1534 1533 1532 1531 1530 1529 1528 1527 1526 1525 1524 1523 1522 1520 1519 1518 1517 1516 1514 1513 1513 1511 1510 1509 1508 1508 1506 1505 1504 1503 1502 1500 1499 1498 1496 1495 1494 1493 1493 1492 1491 1489 1488 1487 1486 1484 1483 1481 1480 1478 1477 1475 1474 1473 1472 1470 1468 1467 1465 1463 1462 1460 1458 1456 1455 1453 1452 1451
1534 1533 1532 1531 1530 1529 1528 1527 1526 1525 1524 1523 1522 1521 1520 1518 1517 1516 1514 1513 1513 1511 1510 1509 1508 1507 1506 1505 1504 1503 1502 1501 1499 1498 1496 1495 1494 1493 1492 1491 1490 1489 1488 1487 1486 1484 1483 1482 1480 1479 1477 1476 1474 1473 1472 1471 1469 1468 1466 1464 1463 1461 1459 1457 1456 1454 1453 1451 1450
1533 1532 1531 1530 1529 1528 1527 1526 1525 1524 1523 1522 1521 1520 1518 1517 1516 1515 1513 1512 1511 1510 1509 1508 1507 1506 1505 1504 1503 1502 1500 1499 1498 1496 1495 1494 1493 1492 1491 1490 1489 1488 1487 1486 1485 1483 1482 1481 1479 1478 1476 1475 1473 1472 1471 1470 1468 1467 1465 1464 1462 1460 1458 1457 1455 1453 1452 1450 1449
1531 1531 1530 1529 1528 1527 1526 1525 1524 1523 1522 1521 1520 1519 1518 1516 1515 1514 1513 1511 1510 1509 1508 1508 1506 1505 1504 1503 1502 1500 1499 1498 1497 1495 1494 1493 1491 1490 1489 1488 1488 1487 1486 1484 1483 1482 1481 1479 1478 1477 1475 1473 1472 1471 1470 1469 1468 1466 1464 1463 1461 1460 1458 1456 1454 1453 1451 1449 1448
1530 1529 1528 1528 1527 1526 1525 1524 1523 1522 1521 1520 1519 1518 1516 1515 1514 1513 1512 1511 1509 1508 1507 1506 1505 1504 1503 1502 1500 1499 1498 1496 1495 1494 1493 1491 1490 1489 1488 1487 1486 1485 1484 1483 1482 1481 1480 1478 1477 1475 1474 1473 1471 1470 1468 1468 1466 1465 1463 1462 1460 1459 1457 1455 1454 1452 1450 1448 1447
1529 1528 1528 1527 1526 1525 1524 1523 1522 1521 1520 1519 1518 1517 1515 1514 1513 1512 1511 1509 1508 1507 1506 1505 1504 1503 1502 1500 1499 1498 1496 1495 1494 1492 1491 1490 1488 1488 1487 1486 1484 1484 1483 1482 1481 1480 1478 1477 1476 1474 1473 1471 1470 1468 1467 1466 1465 1463 1462 1460 1459 1458 1456 1455 1453 1451 1449 1448 1446
1528 1527 1526 1526 1525 1524 1523 1522 1521 1520 1519 1518 1517 1515 1514 1513 1512 1511 1509 1508 1507 1506 1505 1504 1503 1502 1500 1499 1498 1497 1495 1494 1492 1491 1490 1488 1487 1486 1485 1484 1483 1482 1481 1480 1479 1478 1477 1476 1474 1473 1472 1470 1469 1467 1466 1465 1463 1462 1461 1459 1458 1456 1455 1454 1452 1450 1448 1446 1444
1527 1526 1525 1524 1523 1523 1522 1521 1520 1519 1518 1517 1515 1514 1513 1512 1511 1510 1509 1508 1506 1505 1504 1503 1502 1500 1499 1498 1497 1495 1494 1493 1491 1490 1488 1487 1486 1485 1483 1483 1482 1481 1479 1479 1478 1477 1476 1474 1473 1472 1471 1469 1468 1466 1465 1464 1462 1461 1459 1458 1456 1455 1453 1452 1451 1449 1447 1445 1443
1525 1524 1524 1523 1522 1521 1520 1519 1518 1518 1517 1515 1514 1513 1512 1511 1510 1509 1508 1506 1505 1504 1503 1502 1501 1499 1498 1497 1495 1494 1493 1491 1490 1488 1487 1486 1484 1483 1482 1481 1480 1479 1478 1477 1476 1475 1474 1473 1472 1470 1469 1468 1467 1465 1463 1462 1461 1459 1458 1456 1455 1453 1452 1450 1449 1448 1446 1443 1442
1524 1523 1523 1522 1521 1520 1519 1518 1517 1516 1515 1514 1513 1512 1511 1510 1509 1508 1506 1505 1504 1503 1502 1501 1499 1498 1497 1495 1494 1493 1491 1490 1488 1487 1486 1484 1483 1482 1481 1480 1479 1478 1477 1475 1474 1473 1473 1471 1470 1468 1467 1466 1465 1463 1462 1461 1459 1458 1456 1455 1453 1452 1450 1449 1448 1446 1444 1442 1441
1523 1522 1521 1520 1520 1519 1518 1517 1516 1515 1514 1513 1512 1511 1510 1509 1508 1507 1505 1504 1503 1502 1501 1500 1498 1497 1496 1494 1493 1491 1490 1489 1487 1486 1484 1483 1482 1481 1479 1478 1477 1476 1475 1474 1473 1472 1471 1470 1468 1467 1466 1464 1463 1462 1461 1459 1458 1456 1454 1453 1451 1450 1448 1447 1446 1444 1443 1441 1439
1521 1521 1520 1519 1518 1518 1517 1516 1515 1514 1513 1512 1511 1510 1509 1508 1507 1506 1504 1503 1502 1501 1500 1498 1497 1496 1494 1493 1492 1490 1489 1488 1486 1485 1483 1482 1481 1479 1478 1477 1475 1474 1473 1472 1471 1470 1469 1468 1467 1465 1464 1463 1461 1460 1459 1458 1456 1454 1453 1451 1449 1448 1447 1445 1444 1443 1441 1439 1438
1520 1519 1518 1518 1517 1516 1515 1514 1513 1513 1512 1511 1510 1509 1508 1507 1506 1504 1503 1502 1501 1500 1498 1497 1496 1495 1493 1492 1491 1489 1488 1486 1485 1483 1482 1481 1479 1478 1477 1475 1474 1473 1472 1471 1470 1468 1468 1466 1465 1464 1462 1461 1459 1458 1457 1456 1454 1453 1451 1450 1448 1446 1445 1443 1443 1441 1440 1438 1437
1518 1518 1517 1517 1516 1515 1514 1513 1513 1512 1511 1510 1509 1508 1507 1506 1505 1503 1502 1501 1500 1498 1497 1496 1495 1493 1492 1491 1489 1488 1486 1485 1483 1482 1480 1479 1478 1477 1475 1474 1473 1471 1470 1469 1468 1467 1466 1465 1463 1462 1461 1459 1458 1456 1455 1454 1453 1451 1449 1448 1446 1445 1443 1442 1441 1440 1438 1437 1435
1517 1517 1516 1515 1515 1514 1513 1512 1511 1510 1509 1508 1508 1507 1506 1505 1503 1502 1501 1500 1498 1497 1496 1495 1494 1492 1491 1489 1488 1487 1485 1484 1482 1481 1479 1478 1477 1475 1474 1473 1471 1470 1469 1468 1466 1465 1464 1463 1462 1461 1459 1458 1456 1455 1453 1452 1451 1449 1448 1446 1445 1443 1442 1440 1440 1439 1438 1436 1434
1516 1515 1515 1514 1513 1513 1512 1511 1510 1509 1508 1508 1507 1506 1505 1504 1503 1501 1500 1499 1498 1496 1495 1494 1493 1491 1490 1488 1487 1486 1484 1483 1481 1480 1478 1477 1476 1474 1473 1471 1470 1469 1468 1466 1465 1464 1463 1461 1460 1459 1458 1456 1455 1453 1452 1451 1449 1448 1446 1444 1443 1441 1440 1439 1439 1438 1436 1434 1433
1514 1514 1513 1513 1512 1511 1511 1510 1509 1508 1507 1507 1506 1505 1504 1503 1501 1500 1499 1498 1497 1495 1494 1493 1492 1490 1489 1488 1486 1485 1483 1482 1480 1479 1478 1476 1475 1473 1472 1470 1469 1468 1466 1465 1464 1462 1461 1460 1459 1458 1456 1455 1453 1452 1451 1449 1448 1446 1444 1442 1441 1439 1439 1438 1438 1436 1434 1433 1431
1513 1512 1512 1511 1511 1510 1509 1509 1508 1507 1506 1505 1504 1503 1503 1502 1500 1499 1498 1497 1496 1494 1493 1492 1491 1489 1488 1487 1486 1484 1483 1481 1480 1478 1477 1475 1474 1472 1471 1469 1468 1467 1465 1464 1463 1461 1460 1458 1457 1456 1455 1453 1452 1450 1449 1447 1445 1443 1442 1440 1439 1438 1438 1437 1436 1433 1432 1431 1429
1512 1511 1510 1510 1509 1509 1508 1508 1507 1506 1505 1504 1503 1503 1502 1500 1499 1498 1497 1496 1495 1493 1493 1491 1490 1489 1487 1486 1485 1483 1482 1480 1479 1477 1476 1474 1473 1471 1470 1468 1467 1465 1464 1463 1461 1460 1458 1457 1456 1454 1453 1452 1450 1449 1447 1445 1443 1442 1440 1439 1438 1437 1436 1435 1433 1431 1430 1429 1428
1510 1510 1509 1508 1508 1508 1507 1506 1506 1505 1504 1503 1502 1501 1500 1499 1498 1497 1496 1495 1494 1493 1492 1490 1489 1488 1487 1485 1483 1482 1481 1479 1478 1476 1475 1473 1472 1470 1469 1468 1466 1464 1463 1461 1460 1458 1457 1455 1454 1453 1452 1450 1449 1447 1445 1443 1442 1440 1439 1437 1436 1435 1435 1433 1431 1429 1428 1427 1426
1509 1508 1508 1507 1507 1506 1506 1505 1504 1504 1503 1502 1501 1500 1499 1498 1497 1496 1495 1493 1493 1492 1491 1490 1488 1487 1486 1484 1483 1481 1480 1478 1477 1475 1474 1472 1471 1469 1468 1467 1465 1463 1462 1460 1458 1457 1455 1454 1453 1452 1450 1449 1447 1446 1444 1443 1441 1439 1437 1435 1434 1433 1433 1431 1429 1427 1427 1426 1425
1507 1507 1506 1506 1505 1505 1504 1504 1503 1503 1502 1501 1500 1499 1498 1497 1496 1494 1493 1493 1492 1491 1490 1489 1488 1486 1485 1483 1482 1480 1479 1477 1475 1474 1473 1472 1470 1468 1467 1465 1464 1462 1461 1459 1458 1456 1454 1453 1452 1451 1450 1448 1447 1445 1443 1442 1440 1438 1435 1433 1432 1431 1430 1428 1427 1426 1425 1424 1423
1506 1505 1505 1504 1504 1503 1503 1503 1502 1501 1500 1500 1499 1498 1497 1495 1494 1493 1492 1491 1491 1490 1489 1488 1486 1485 1483 1482 1481 1479 1478 1477 1475 1473 1472 1470 1469 1468 1466 1465 1463 1461 1460 1458 1457 1455 1454 1454 1453 1451 1450 1448 1446 1445 1443 1441 1439 1436 1433 1432 1431 1430 1428 1427 1426 1425 1425 1424 1423
1504 1504 1503 1503 1503 1502 1502 1501 1501 1500 1499 1498 1498 1496 1495 1494 1493 1492 1491 1490 1489 1488 1488 1486 1485 1484 1482 1481 1480 1478 1477 1476 1474 1473 1471 1470 1468 1467 1465 1464 1462 1461 1459 1458 1456 1455 1454 1453 1453 1451 1449 1447 1445 1443 1442 1440 1438 1436 1433 1432 1430 1429 1427 1426 1425 1424 1424 1423 1422
1503 1503 1502 1502 1501 1501 1500 1500 1499 1498 1498 1497 1496 1495 1494 1493 1492 1491 1490 1489 1488 1487 1486 1485 1484 1483 1481 1480 1479 1478 1476 1475 1474 1472 1471 1469 1468 1466 1465 1463 1462 1460 1458 1457 1455 1454 1453 1453 1451 1450 1448 1446 1444 1443 1441 1439 1437 1435 1433 1432 1430 1428 1427 1425 1424 1423 1423 1422 1421
1502 1501 1501 1500 1500 1499 1499 1498 1498 1497 1497 1496 1495 1494 1493 1492 1491 1490 1489 1488 1487 1486 1485 1484 1483 1482 1480 1479 1478 1477 1476 1474 1473 1472 1470 1469 1467 1466 1464 1463 1461 1459 1458 1456 1455 1454 1453 1452 1450 1448 1447 1445 1443 1441 1439 1437 1436 1434 1432 1431 1429 1427 1426 1425 1423 1423 1422 1421 1420
1500 1500 1499 1499 1498 1498 1498 1497 1497 1496 1495 1494 1493 1493 1492 1491 1490 1489 1488 1487 1486 1485 1483 1482 1481 1480 1479 1478 1477 1476 1475 1473 1472 1471 1469 1468 1467 1465 1464 1462 1461 1459 1458 1456 1454 1453 1452 1451 1449 1448 1446 1444 1442 1439 1437 1435 1433 1432 1431 1429 1428 1426 1425 1424 1423 1422 1421 1420 1419
1499 1498 1498 1498 1497 1497 1496 1496 1495 1495 1494 1493 1492 1491 1490 1489 1489 1488 1487 1486 1485 1483 1483 1481 1480 1479 1478 1477 1476 1475 1474 1473 1472 1470 1469 1467 1466 1464 1463 1462 1460 1458 1457 1455 1453 1452 1451 1450 1448 1447 1444 1442 1439 1437 1436 1434 1432 1430 1429 1427 1426 1425 1424 1423 1422 1421 1420 1419 1418
1498 1497 1497 1496 1496 1495 1495 1495 1494 1493 1493 1492 1491 1490 1489 1488 1488 1487 1486 1484 1483 1483 1482 1481 1479 1478 1478 1477 1475 1474 1473 1472 1470 1469 1468 1467 1465 1464 1463 1461 1459 1458 1456 1454 1453 1451 1450 1449 1448 1445 1443 1440 1438 1437 1435 1433 1431 1429 1427 1425 1424 1423 1423 1422 1421 1420 1419 1418 1417
1496 1496 1495 1495 1494 1494 1494 1493 1493 1493 1492 1491 1490 1489 1488 1487 1487 1486 1485 1483 1483 1481 1480 1479 1478 1477 1476 1475 1474 1473 1472 1471 1469 1468 1467 1466 1464 1463 1462 1460 1459 1457 1455 1453 1452 1450 1449 1448 1446 1443 1441 1440 1439 1437 1434 1432 1430 1428 1426 1424 1423 1423 1422 1421 1420 1419 1418 1418 1417
1495 1494 1494 1493 1493 1493 1493 1492 1492 1491 1490 1490 1489 1488 1487 1486 1485 1484 1483 1483 1481 1480 1479 1478 1477 1476 1475 1474 1473 1472 1471 1470 1468 1468 1466 1465 1464 1462 1461 1459 1458 1456 1454 1453 1451 1449 1448 1446 1444 1442 1441 1440 1438 1436 1433 1431 1428 1427 1425 1424 1423 1422 1422 1421 1419 1418 1418 1417 1416
1493 1493 1493 1492 1492 1492 1491 1491 1491 1490 1489 1488 1488 1487 1486 1485 1484 1483 1483 1481 1480 1479 1478 1477 1476 1475 1474 1473 1472 1471 1470 1468 1468 1466 1465 1464 1463 1462 1460 1459 1457 1456 1454 1452 1450 1448 1447 1445 1443 1441 1441 1440 1438 1435 1433 1430 1428 1426 1425 1424 1423 1422 1421 1420 1419 1418 1417 1417 1415
1492 1492 1491 1491 1491 1490 1490 1490 1489 1489 1488 1487 1486 1486 1485 1484 1483 1482 1481 1480 1479 1478 1477 1476 1476 1474 1473 1472 1471 1470 1469 1467 1466 1465 1464 1463 1462 1461 1459 1458 1456 1455 1453 1451 1449 1447 1445 1443 1442 1441 1441 1439 1437 1435 1432 1430 1428 1426 1425 1424 1423 1422 1421 1420 1419 1418 1417 1416 1415
1490 1490 1490 1490 1489 1489 1489 1488 1488 1487 1487 1486 1485 1484 1484 1483 1482 1481 1480 1479 1478 1477 1476 1475 1474 1473 1472 1471 1470 1469 1468 1466 1465 1464 1463 1462 1461 1460 1458 1457 1455 1453 1452 1450 1448 1446 1444 1443 1441 1441 1440 1439 1436 1434 1432 1430 1428 1426 1425 1424 1423 1422 1421 1420 1418 1418 1417 1416 1414
1489 1489 1488 1488 1488 1488 1488 1487 1487 1486 1485 1484 1484 1483 1483 1482 1481 1480 1479 1478 1477 1476 1475 1474 1473 1472 1471 1470 1468 1468 1467 1465 1464 1463 1462 1461 1460 1459 1457 1456 1454 1453 1451 1449 1447 1446 1444 1442 1441 1441 1440 1437 1435 1433 1432 1430 1428 1426 1425 1423 1422 1421 1420 1419 1418 1417 1416 1415 1413
1488 1488 1487 1487 1487 1486 1486 1486 1485 1485 1484 1483 1483 1482 1482 1481 1480 1479 1478 1477 1476 1475 1473 1473 1472 1471 1470 1468 1468 1466 1465 1464 1463 1462 1461 1460 1459 1458 1457 1455 1453 1452 1450 1448 1447 1445 1444 1442 1441 1441 1439 1437 1434 1433 1431 1429 1428 1426 1424 1423 1421 1420 1419 1418 1418 1417 1415 1414 1413
1486 1486 1486 1485 1485 1485 1485 1484 1484 1483 1483 1482 1482 1481 1480 1480 1479 1478 1477 1476 1475 1474 1473 1472 1471 1470 1469 1468 1466 1465 1464 1463 1463 1462 1461 1459 1458 1457 1456 1454 1453 1451 1450 1448 1447 1445 1443 1442 1442 1441 1439 1436 1434 1433 1431 1429 1428 1426 1424 1422 1420 1419 1418 1417 1417 1415 1414 1413 1412
1485 1484 1484 1484 1484 1483 1483 1483 1483 1482 1482 1481 1481 1480 1479 1478 1478 1477 1476 1475 1474 1473 1472 1471 1470 1469 1468 1467 1465 1464 1463 1462 1462 1461 1460 1459 1458 1457 1456 1454 1453 1451 1449 1448 1447 1445 1443 1442 1442 1441 1439 1437 1434 1433 1431 1429 1427 1425 1423 1421 1419 1418 1417 1416 1415 1414 1413 1412 1411
1483 1483 1483 1483 1483 1482 1482 1482 1482 1481 1481 1480 1479 1479 1478 1478 1477 1476 1475 1474 1473 1472 1471 1470 1469 1468 1467 1466 1464 1463 1462 1461 1460 1460 1459 1458 1457 1456 1455 1454 1452 1451 1449 1448 1446 1445 1443 1443 1442 1441 1439 1437 1435 1433 1431 1429 1427 1425 1423 1421 1419 1418 1416 1415 1414 1413 1412 1411 1409